| time (UTC) | temp F | wind direction | speed MPH | gust MPH | rain 1hr in | rain 24hr in | rain mn in | humidity % | barometer mb |
| 20260504050012 | 63 | 14 | 0.0 | 1.0 | 0.00 | 0.00 | 0.00 | 78 | 1014.6 |
| 20260504050007 | 63 | 344 | 0.0 | 1.0 | 0.00 | 0.00 | 0.00 | 78 | 1015.4 |
| 20260504044512 | 61 | 22 | 0.0 | 0.0 | 0.00 | 0.00 | 0.00 | 84 | 1015.4 |
| 20260504044510 | 61 | 52 | 0.0 | 0.0 | 0.00 | 0.00 | 0.00 | 84 | 1014.7 |
| 20260504043010 | 62 | 23 | 0.0 | 0.0 | 0.00 | 0.00 | 0.00 | 85 | 1015.4 |
| 20260504041508 | 62 | 22 | 0.0 | 0.0 | 0.00 | 0.00 | 0.00 | 84 | 1015.4 |
| 20260504041505 | 62 | 52 | 0.0 | 0.0 | 0.00 | 0.00 | 0.00 | 84 | 1014.7 |
| 20260504040007 | 62 | 52 | 0.0 | 0.0 | 0.00 | 0.00 | 0.00 | 81 | 1014.8 |
| 20260504040002 | 62 | 22 | 0.0 | 0.0 | 0.00 | 0.00 | 0.00 | 81 | 1015.5 |
| 20260504034520 | 62 | 52 | 0.0 | 0.0 | 0.00 | 0.00 | 0.00 | 79 | 1015.0 |
| 20260504034501 | 62 | 22 | 0.0 | 0.0 | 0.00 | 0.00 | 0.00 | 79 | 1015.7 |
| 20260504033014 | 63 | 52 | 0.0 | 0.0 | 0.00 | 0.00 | 0.00 | 79 | 1015.0 |
| 20260504033002 | 63 | 22 | 0.0 | 0.0 | 0.00 | 0.00 | 0.00 | 79 | 1015.7 |
| 20260504031512 | 63 | 53 | 0.0 | 0.0 | 0.00 | 0.00 | 0.00 | 80 | 1015.1 |
| 20260504031502 | 63 | 22 | 0.0 | 0.0 | 0.00 | 0.00 | 0.00 | 80 | 1015.8 |
| 20260504030100 | 64 | 22 | 0.0 | 0.0 | 0.00 | 0.00 | 0.00 | 78 | 1015.6 |
| 20260504030006 | 64 | 53 | 0.0 | 0.0 | 0.00 | 0.00 | 0.00 | 78 | 1015.0 |
| 20260504024600 | 64 | 22 | 0.0 | 0.0 | 0.00 | 0.00 | 0.00 | 76 | 1015.6 |
| 20260504024508 | 65 | 53 | 0.0 | 0.0 | 0.00 | 0.00 | 0.00 | 75 | 1015.0 |
| 20260504023100 | 65 | 22 | 0.0 | 0.0 | 0.00 | 0.00 | 0.00 | 77 | 1015.4 |
| 20260504023004 | 65 | 52 | 0.0 | 0.0 | 0.00 | 0.00 | 0.00 | 76 | 1014.8 |
| 20260504021600 | 66 | 22 | 0.0 | 0.0 | 0.00 | 0.00 | 0.00 | 73 | 1015.3 |
| 20260504021519 | 66 | 52 | 0.0 | 0.0 | 0.00 | 0.00 | 0.00 | 72 | 1014.8 |
| 20260504020129 | 67 | 22 | 0.0 | 0.0 | 0.00 | 0.00 | 0.00 | 71 | 1015.2 |
| 20260504020014 | 68 | 53 | 0.0 | 0.0 | 0.00 | 0.00 | 0.00 | 68 | 1014.5 |
| 20260504014601 | 69 | 23 | 0.0 | 0.0 | 0.00 | 0.00 | 0.00 | 70 | 1015.0 |
| 20260504014513 | 69 | 52 | 0.0 | 0.0 | 0.00 | 0.00 | 0.00 | 70 | 1014.5 |
| 20260504013121 | 70 | 23 | 0.0 | 0.0 | 0.00 | 0.00 | 0.00 | 59 | 1015.0 |
| 20260504013016 | 70 | 52 | 0.0 | 0.0 | 0.00 | 0.00 | 0.00 | 58 | 1014.5 |
| 20260504011556 | 72 | 22 | 0.0 | 0.0 | 0.00 | 0.00 | 0.00 | 56 | 1015.1 |
| 20260504011507 | 72 | 53 | 0.0 | 0.0 | 0.00 | 0.00 | 0.00 | 56 | 1014.5 |
| 20260504010055 | 74 | 22 | 0.0 | 0.0 | 0.00 | 0.00 | 0.00 | 53 | 1014.9 |
| 20260504010022 | 74 | 53 | 0.0 | 0.0 | 0.00 | 0.00 | 0.00 | 52 | 1014.3 |
| 20260504004553 | 76 | 22 | 0.0 | 0.0 | 0.00 | 0.00 | 0.00 | 49 | 1015.0 |
| 20260504004525 | 76 | 53 | 0.0 | 0.0 | 0.00 | 0.00 | 0.00 | 48 | 1014.3 |
| 20260504003052 | 77 | 23 | 0.0 | 0.0 | 0.00 | 0.00 | 0.00 | 47 | 1014.9 |
| 20260504003034 | 77 | 53 | 0.0 | 0.0 | 0.00 | 0.00 | 0.00 | 47 | 1014.2 |
| 20260504001554 | 78 | 22 | 0.0 | 0.0 | 0.00 | 0.00 | 0.00 | 45 | 1015.0 |
| 20260504001516 | 78 | 52 | 0.0 | 0.0 | 0.00 | 0.00 | 0.00 | 46 | 1014.3 |
| 20260504000116 | 78 | 65 | 0.0 | 1.0 | 0.00 | 0.00 | 0.00 | 45 | 1015.0 |
| 20260504000011 | 78 | 95 | 0.0 | 1.0 | 0.00 | 0.00 | 0.00 | 45 | 1014.4 |
| 20260503234510 | 78 | 27 | 0.0 | 3.0 | 0.00 | 0.00 | 0.00 | 45 | 1014.5 |
| 20260503234503 | 78 | 356 | 0.0 | 3.0 | 0.00 | 0.00 | 0.00 | 45 | 1015.1 |
| 20260503233104 | 78 | 343 | 0.0 | 2.0 | 0.00 | 0.00 | 0.00 | 45 | 1015.2 |
| 20260503233035 | 78 | 36 | 0.0 | 1.0 | 0.00 | 0.00 | 0.00 | 45 | 1014.5 |
| 20260503231522 | 78 | 360 | 0.0 | 3.0 | 0.00 | 0.00 | 0.00 | 45 | 1014.6 |
| 20260503231511 | 78 | 331 | 0.0 | 3.0 | 0.00 | 0.00 | 0.00 | 45 | 1015.2 |
| 20260503230038 | 78 | 3 | 0.0 | 2.0 | 0.00 | 0.00 | 0.00 | 47 | 1015.2 |
| 20260503230022 | 78 | 36 | 0.0 | 2.0 | 0.00 | 0.00 | 0.00 | 44 | 1014.5 |
| 20260503224620 | 78 | 55 | 0.0 | 2.0 | 0.00 | 0.00 | 0.00 | 45 | 1015.2 |
| 20260503224527 | 78 | 78 | 0.0 | 2.0 | 0.00 | 0.00 | 0.00 | 45 | 1014.4 |
| 20260503223018 | 78 | 141 | 0.0 | 6.0 | 0.00 | 0.00 | 0.00 | 44 | 1014.5 |
| 20260503223005 | 78 | 111 | 0.0 | 6.0 | 0.00 | 0.00 | 0.00 | 44 | 1015.3 |
| 20260503221524 | 78 | 27 | 0.0 | 2.0 | 0.00 | 0.00 | 0.00 | 45 | 1015.5 |
| 20260503221512 | 78 | 57 | 0.0 | 2.0 | 0.00 | 0.00 | 0.00 | 45 | 1014.8 |
| 20260503220034 | 78 | 201 | 0.0 | 3.0 | 0.00 | 0.00 | 0.00 | 44 | 1015.6 |
| 20260503220029 | 78 | 290 | 0.0 | 4.0 | 0.00 | 0.00 | 0.00 | 45 | 1015.0 |
| 20260503214541 | 78 | 6 | 0.0 | 4.0 | 0.00 | 0.00 | 0.00 | 46 | 1015.7 |
| 20260503214526 | 78 | 77 | 0.0 | 5.0 | 0.00 | 0.00 | 0.00 | 46 | 1015.1 |
| 20260503213042 | 77 | 297 | 0.0 | 5.0 | 0.00 | 0.00 | 0.00 | 46 | 1016.0 |
| 20260503213023 | 77 | 23 | 1.0 | 7.0 | 0.00 | 0.00 | 0.00 | 45 | 1015.2 |
| 20260503211535 | 78 | 354 | 0.0 | 4.0 | 0.00 | 0.00 | 0.00 | 44 | 1016.3 |
| 20260503211523 | 78 | 49 | 0.0 | 4.0 | 0.00 | 0.00 | 0.00 | 45 | 1015.6 |
| 20260503210033 | 78 | 344 | 0.0 | 5.0 | 0.00 | 0.00 | 0.00 | 44 | 1016.4 |
| 20260503210017 | 78 | 31 | 0.0 | 5.0 | 0.00 | 0.00 | 0.00 | 44 | 1015.8 |
| 20260503204531 | 77 | 342 | 0.0 | 9.0 | 0.00 | 0.00 | 0.00 | 45 | 1016.6 |
| 20260503204514 | 77 | 19 | 0.0 | 9.0 | 0.00 | 0.00 | 0.00 | 44 | 1016.1 |
| 20260503203035 | 77 | 335 | 0.0 | 3.0 | 0.00 | 0.00 | 0.00 | 44 | 1017.1 |
| 20260503203032 | 77 | 38 | 0.0 | 10.0 | 0.00 | 0.00 | 0.00 | 45 | 1016.4 |
| 20260503201528 | 77 | 355 | 3.0 | 8.0 | 0.00 | 0.00 | 0.00 | 43 | 1016.6 |
| 20260503200027 | 76 | 316 | 4.0 | 9.0 | 0.00 | 0.00 | 0.00 | 43 | 1017.7 |
| 20260503194525 | 77 | 197 | 0.0 | 10.0 | 0.00 | 0.00 | 0.00 | 46 | 1018.0 |
| 20260503194522 | 77 | 145 | 0.0 | 10.0 | 0.00 | 0.00 | 0.00 | 45 | 1017.3 |
| 20260503193035 | 77 | 17 | 0.0 | 4.0 | 0.00 | 0.00 | 0.00 | 47 | 1018.3 |
| 20260503193019 | 77 | 43 | 0.0 | 4.0 | 0.00 | 0.00 | 0.00 | 46 | 1017.6 |
| 20260503191540 | 77 | 333 | 0.0 | 4.0 | 0.00 | 0.00 | 0.00 | 42 | 1018.5 |
| 20260503191514 | 77 | 8 | 0.0 | 4.0 | 0.00 | 0.00 | 0.00 | 42 | 1017.8 |
| 20260503190027 | 76 | 14 | 0.0 | 7.0 | 0.00 | 0.00 | 0.00 | 44 | 1018.3 |
| 20260503184526 | 75 | 24 | 2.0 | 7.0 | 0.00 | 0.00 | 0.00 | 43 | 1018.6 |
| 20260503184514 | 75 | 354 | 1.0 | 7.0 | 0.00 | 0.00 | 0.00 | 43 | 1019.1 |
| 20260503183027 | 74 | 50 | 0.0 | 3.0 | 0.00 | 0.00 | 0.00 | 46 | 1018.7 |
| 20260503183009 | 74 | 21 | 0.0 | 3.0 | 0.00 | 0.00 | 0.00 | 47 | 1019.3 |
| 20260503181524 | 72 | 49 | 0.0 | 9.0 | 0.00 | 0.00 | 0.00 | 48 | 1019.1 |
| 20260503181506 | 72 | 19 | 0.0 | 9.0 | 0.00 | 0.00 | 0.00 | 49 | 1019.7 |
| 20260503180022 | 72 | 65 | 0.0 | 3.0 | 0.00 | 0.00 | 0.00 | 48 | 1019.3 |
| 20260503180005 | 72 | 35 | 0.0 | 3.0 | 0.00 | 0.00 | 0.00 | 48 | 1019.9 |
| 20260503174605 | 71 | 108 | 0.0 | 2.0 | 0.00 | 0.00 | 0.00 | 49 | 1020.1 |
| 20260503174532 | 71 | 78 | 0.0 | 3.0 | 0.00 | 0.00 | 0.00 | 49 | 1019.6 |
| 20260503173103 | 70 | 3 | 0.0 | 6.0 | 0.00 | 0.00 | 0.00 | 47 | 1020.5 |
| 20260503173033 | 70 | 145 | 0.0 | 6.0 | 0.00 | 0.00 | 0.00 | 48 | 1019.8 |
| 20260503171554 | 69 | 27 | 0.0 | 3.0 | 0.00 | 0.00 | 0.00 | 47 | 1020.8 |
| 20260503171527 | 69 | 335 | 0.0 | 3.0 | 0.00 | 0.00 | 0.00 | 49 | 1020.0 |
| 20260503170103 | 69 | 59 | 0.0 | 4.0 | 0.00 | 0.00 | 0.00 | 50 | 1020.9 |
| 20260503150112 | 59 | 48 | 0.0 | 1.0 | 0.00 | 0.00 | 0.00 | 66 | 1022.2 |
| 20260503081522 | 47 | 57 | 0.0 | 0.0 | 0.00 | 0.00 | 0.00 | 84 | 1020.2 |
| 20260503081503 | 47 | 27 | 0.0 | 0.0 | 0.00 | 0.00 | 0.00 | 84 | 1021.0 |
| 20260503080106 | 47 | 27 | 0.0 | 0.0 | 0.00 | 0.00 | 0.00 | 83 | 1021.0 |
| 20260503071611 | 49 | 11 | 0.0 | 0.0 | 0.00 | 0.00 | 0.00 | 85 | 1020.9 |
| 20260503071524 | 49 | 41 | 0.0 | 0.0 | 0.00 | 0.00 | 0.00 | 85 | 1020.3 |